Weather in Abakan

Russia / Republic of Khakassia     53°43′16″N   91°26′32″E
temp.,
°C
wind,
m/s
gust,
m/s
humid.,
%
clouds,
%
prec.,
mm/h
press.,
hPa
HPBL,
m
20 april, tue
tue2001:00−5n5746100 0.0 1021889
04:00−6n5544100 0.0 1022861
07:00−6n3344100 0.0 1023698
10:00−4nw2242100 0.0 10231342
13:00−1nw233246 0.0 10221699
16:000n553391 0.0 10212122
19:00−1nne2430100 0.0 10231945
22:00−2n4436100 0.0 10251604
21 april, wed
wed2101:00−4n364780 0.0 1026681
04:00−5n124998 0.0 1026128
07:00−5ne22455 0.0 1027419
10:00−2e223410 0.0 10261540
13:00+1ene232870 0.0 10241894
16:00+3ne4425100 0.0 10222215
19:00+1ne6633100 0.0 10241113
22:00−1nne3641100 0.0 1025454
22 april, thu
thu2201:00−2nnw245863 0.0 1026165
04:00−3nnw2268100 0.0 102868
07:00−3nnw375585 0.0 1029515
10:00+1n56445 0.0 10311137
13:00+4n6639100 0.0 10312028
16:00+4n6744100 0.1 10331707
19:00+3n685213 0.2 10361288
22:000nnw34675 0.0 1038129
23 april, fri
fri2301:00−2n23745 0.0 103966
04:00−2n23795 0.0 103973
07:00−1n24705 0.0 1040223
10:00+3nne454594 0.0 10391085
13:00+7ne5636100 0.0 10371669
16:00+8ne6738100 0.0 10351875
19:00+7ne4747100 0.0 10341420
22:00+4n3557100 0.0 1034147
24 april, sat
sat2401:00+2n236897 0.0 103381
04:00+1nnw227397 0.0 103253
07:00+1nw3668100 0.0 1032416
10:00+4nnw4558100 0.0 1031844
13:00+5nw2356100 0.0 10301209
16:00+7nnw1254100 0.0 10291198
19:00+6n235491 0.1 10291128
22:00+4n1167100 0.0 103011